Troy, MI

9:04 AM EDT on September 26, 2017 (GMT -0400)
Troy

Weather History for KVLL - February, 2014

Change the Weather History Date:

Tuesday, February 25, 2014

  Actual Average (KDET) Record (KDET)
Temperature  
Mean Temperature 18 °F -  
Max Temperature 24 °F 34 °F 66 °F (1957)
Min Temperature 12 °F 22 °F 1 °F (1950)
Degree Days  
Heating Degree Days 48    
Moisture  
Dew Point 6 °F    
Average Humidity 59    
Maximum Humidity 72    
Minimum Humidity 50    
Precipitation  
Precipitation 0.00 in - - ()
Sea Level Pressure  
Sea Level Pressure 30.09 in    
Wind  
Wind Speed 8 mph (West)    
Max Wind Speed 16 mph    
Max Gust Speed 25 mph    
Visibility 10 miles    
Events Snow    
Averages and records for this station are not official NWS values.
T = Trace of Precipitation, MM = Missing Value Source: NWS Daily Summary

Daily Weather History Graph

Daily Weather History Graph

Search for Another Location

Airport or City:

Trip Planner

Search our weather history database for the weather conditions in past years. The results will help you decide how hot, cold, wet, or windy it might be!

Date:

Astronomy

Feb. 25, 2014 Rise Set
Actual Time 7:14 AM EST 6:17 PM EST
Civil Twilight 6:46 AM EST 6:45 PM EST
Nautical Twilight 6:13 AM EST 7:18 PM EST
Astronomical Twilight 5:41 AM EST 7:51 PM EST
Moon 4:12 AM EST (2/25) 2:18 PM EST (2/25)
Length of Visible Light 11h 59m
Length of Day
11h 02m
Waning Crescent, 18% of the Moon is Illuminated
Feb 25
Waning Crescent
Mar 1
New
Mar 8
First Quarter
Mar 16
Full
Mar 23
Last Quarter

Hourly Weather History & Observations

Time (EST) Temp. Windchill Dew Point Humidity Pressure Visibility Wind Dir Wind Speed Gust Speed Precip Events Conditions
12:15 AM 15.8 °F 3.4 °F 4.6 °F 61% 30.16 in 10.0 mi NW 10.4 mph - N/A   Overcast
12:35 AM 15.8 °F 7.2 °F 5.0 °F 62% 30.17 in 10.0 mi WNW 5.8 mph - N/A   Overcast
12:55 AM 15.8 °F 6.1 °F 4.8 °F 62% 30.17 in 10.0 mi NW 6.9 mph - N/A   Overcast
1:14 AM 15.8 °F 6.1 °F 4.3 °F 60% 30.15 in 10.0 mi NW 6.9 mph - N/A   Overcast
1:35 AM 15.3 °F 3.5 °F 2.3 °F 57% 30.16 in 10.0 mi NW 9.2 mph - N/A   Overcast
1:55 AM 15.1 °F 5.2 °F 1.4 °F 55% 30.15 in 10.0 mi NW 6.9 mph - N/A   Overcast
2:14 AM 14.9 °F 6.1 °F 1.2 °F 55% 30.17 in 10.0 mi NW 5.8 mph - N/A   Overcast
2:35 AM 14.9 °F 7.5 °F 1.4 °F 55% 30.17 in 10.0 mi West 4.6 mph - N/A   Overcast
2:55 AM 14.9 °F 9.2 °F 1.2 °F 55% 30.15 in 10.0 mi WNW 3.5 mph - N/A   Overcast
3:14 AM 14.7 °F 7.3 °F 1.2 °F 55% 30.15 in 10.0 mi WNW 4.6 mph - N/A   Overcast
3:35 AM 14.9 °F 7.5 °F 1.8 °F 56% 30.15 in 10.0 mi West 4.6 mph - N/A   Overcast
3:55 AM 14.5 °F 7.1 °F 1.9 °F 57% 30.15 in 10.0 mi WSW 4.6 mph - N/A   Overcast
4:15 AM 14.7 °F 5.9 °F 2.1 °F 57% 30.15 in 10.0 mi West 5.8 mph - N/A   Overcast
4:35 AM 14.7 °F 5.9 °F 2.3 °F 58% 30.15 in 10.0 mi West 5.8 mph - N/A   Overcast
4:54 AM 14.7 °F 9.0 °F 1.9 °F 57% 30.15 in 10.0 mi West 3.5 mph - N/A   Overcast
5:15 AM 14.9 °F 7.5 °F 2.1 °F 57% 30.15 in 10.0 mi West 4.6 mph - N/A   Overcast
5:35 AM 14.9 °F 6.1 °F 2.1 °F 57% 30.15 in 10.0 mi WNW 5.8 mph - N/A   Overcast
5:54 AM 14.5 °F 3.6 °F 1.8 °F 57% 30.15 in 10.0 mi WNW 8.1 mph - N/A   Overcast
6:15 AM 14.4 °F 8.6 °F 2.1 °F 58% 30.15 in 10.0 mi West 3.5 mph - N/A   Overcast
6:35 AM 13.8 °F 8.0 °F 2.3 °F 60% 30.15 in 10.0 mi WSW 3.5 mph - N/A   Overcast
6:54 AM 13.3 °F 5.6 °F 2.3 °F 62% 30.15 in 10.0 mi West 4.6 mph - N/A   Mostly Cloudy
7:15 AM 13.1 °F 7.1 °F 2.7 °F 63% 30.15 in 10.0 mi West 3.5 mph - N/A   Mostly Cloudy
7:34 AM 13.1 °F 7.1 °F 2.8 °F 64% 30.15 in 10.0 mi WSW 3.5 mph - N/A   Overcast
7:55 AM 12.9 °F 5.2 °F 3.0 °F 65% 30.15 in 10.0 mi WSW 4.6 mph - N/A   Scattered Clouds
8:15 AM 13.5 °F 5.8 °F 3.2 °F 64% 30.16 in 10.0 mi WSW 4.6 mph - N/A   Clear
8:34 AM 14.2 °F 5.3 °F 3.7 °F 63% 30.15 in 10.0 mi West 5.8 mph - N/A   Clear
8:55 AM 14.9 °F 7.5 °F 4.3 °F 63% 30.15 in 10.0 mi WSW 4.6 mph - N/A   Clear
9:15 AM 15.8 °F 5.1 °F 4.8 °F 62% 30.15 in 10.0 mi West 8.1 mph - N/A   Clear
9:34 AM 17.2 °F 10.2 °F 5.5 °F 60% 30.15 in 10.0 mi WSW 4.6 mph - N/A   Clear
9:55 AM 18.5 °F 6.8 °F 6.3 °F 59% 30.15 in 10.0 mi West 10.4 mph - N/A   Clear
10:15 AM 19.8 °F 9.1 °F 6.8 °F 57% 30.15 in 10.0 mi West 9.2 mph - N/A   Clear
10:35 AM 19.4 °F 8.6 °F 6.3 °F 57% 30.14 in 10.0 mi West 9.2 mph - N/A   Scattered Clouds
10:55 AM 21.4 °F 10.4 °F 6.6 °F 53% 30.13 in 10.0 mi WSW 10.4 mph 16.1 mph N/A   Scattered Clouds
11:15 AM 21.2 °F 8.9 °F 6.6 °F 53% 30.13 in 10.0 mi West 12.7 mph 17.3 mph N/A   Scattered Clouds
11:35 AM 20.8 °F 8.4 °F 6.4 °F 54% 30.13 in 10.0 mi West 12.7 mph 18.4 mph N/A   Mostly Cloudy
11:55 AM 21.0 °F 10.6 °F 6.8 °F 54% 30.12 in 10.0 mi WSW 9.2 mph - N/A   Overcast
12:15 PM 21.4 °F 9.7 °F 7.2 °F 54% 30.13 in 10.0 mi WSW 11.5 mph 16.1 mph N/A   Overcast
12:35 PM 21.7 °F 9.6 °F 6.6 °F 52% 30.12 in 10.0 mi West 12.7 mph - N/A   Overcast
12:54 PM 22.5 °F 11.1 °F 6.6 °F 51% 30.10 in 10.0 mi NW 11.5 mph - N/A   Overcast
1:15 PM 22.5 °F 11.1 °F 7.0 °F 52% 30.08 in 10.0 mi WNW 11.5 mph 18.4 mph N/A   Overcast
1:35 PM 23.0 °F 11.7 °F 6.8 °F 50% 30.08 in 10.0 mi West 11.5 mph - N/A   Overcast
1:54 PM 23.2 °F 14.1 °F 7.9 °F 52% 30.07 in 10.0 mi West 8.1 mph 16.1 mph N/A   Overcast
2:15 PM 23.5 °F 13.7 °F 8.8 °F 53% 30.05 in 10.0 mi West 9.2 mph - N/A   Overcast
2:35 PM 23.4 °F 13.5 °F 9.3 °F 55% 30.05 in 10.0 mi West 9.2 mph - N/A   Overcast
2:54 PM 23.5 °F 13.7 °F 8.6 °F 53% 30.05 in 10.0 mi WSW 9.2 mph 19.6 mph N/A   Overcast
3:15 PM 23.4 °F 11.6 °F 9.1 °F 55% 30.05 in 10.0 mi WSW 12.7 mph - N/A   Overcast
3:34 PM 23.0 °F 12.4 °F 11.1 °F 60% 30.04 in 4.0 mi WSW 10.4 mph - N/A Snow Light Snow
3:55 PM 22.6 °F 10.7 °F 10.6 °F 60% 30.03 in 10.0 mi SW 12.7 mph 19.6 mph N/A   Overcast
4:15 PM 23.0 °F 11.7 °F 10.8 °F 60% 30.03 in 10.0 mi WSW 11.5 mph 17.3 mph N/A   Overcast
4:35 PM 23.4 °F 11.1 °F 9.9 °F 56% 30.03 in 10.0 mi West 13.8 mph 18.4 mph N/A   Overcast
4:55 PM 23.2 °F 11.4 °F 9.5 °F 56% 30.02 in 10.0 mi West 12.7 mph 20.7 mph N/A   Overcast
5:14 PM 23.2 °F 12.6 °F 10.4 °F 58% 30.01 in 10.0 mi WSW 10.4 mph 17.3 mph N/A   Overcast
5:35 PM 23.0 °F 13.1 °F 10.2 °F 58% 30.00 in 10.0 mi West 9.2 mph 18.4 mph N/A   Overcast
5:55 PM 22.6 °F 11.3 °F 10.4 °F 59% 30.00 in 10.0 mi West 11.5 mph 23.0 mph N/A   Overcast
6:14 PM 22.5 °F 12.4 °F 10.0 °F 59% 30.00 in 10.0 mi West 9.2 mph 20.7 mph N/A   Overcast
6:35 PM 21.4 °F 8.5 °F 10.4 °F 63% 30.00 in 7.0 mi West 13.8 mph 24.2 mph N/A Snow Light Snow
6:55 PM 20.8 °F 9.0 °F 11.3 °F 67% 30.01 in 10.0 mi West 11.5 mph - N/A   Overcast
7:14 PM 20.7 °F 6.6 °F 10.0 °F 64% 30.01 in 10.0 mi West 16.1 mph 19.6 mph N/A   Mostly Cloudy
7:35 PM 19.4 °F 7.2 °F 9.9 °F 66% 30.01 in 7.0 mi West 11.5 mph 21.9 mph N/A   Mostly Cloudy
7:55 PM 19.4 °F 5.5 °F 6.6 °F 58% 30.01 in 10.0 mi West 15.0 mph 24.2 mph N/A   Mostly Cloudy
8:15 PM 18.9 °F 7.2 °F 7.0 °F 60% 30.00 in 10.0 mi WSW 10.4 mph 19.6 mph N/A   Scattered Clouds
8:35 PM 18.5 °F 3.8 °F 7.3 °F 62% 30.00 in 10.0 mi West 16.1 mph 25.3 mph N/A   Mostly Cloudy
8:54 PM 18.1 °F 6.3 °F 10.0 °F 71% 30.01 in 4.0 mi WNW 10.4 mph 18.4 mph N/A Snow Light Snow
9:15 PM 16.9 °F 2.3 °F 9.3 °F 72% 30.02 in 5.0 mi WNW 15.0 mph 24.2 mph N/A Snow Light Snow
9:35 PM 16.7 °F 4.5 °F 7.7 °F 68% 30.02 in 10.0 mi NW 10.4 mph 16.1 mph N/A   Overcast
9:54 PM 16.0 °F 1.7 °F 5.7 °F 64% 30.02 in 10.0 mi WNW 13.8 mph 20.7 mph N/A   Overcast
10:15 PM 15.6 °F 0.6 °F 4.1 °F 60% 30.03 in 10.0 mi WNW 15.0 mph 23.0 mph N/A   Overcast
10:35 PM 15.3 °F 0.2 °F 3.2 °F 59% 30.03 in 10.0 mi WNW 15.0 mph 20.7 mph N/A   Overcast
10:54 PM 14.9 °F 3.1 °F 3.2 °F 60% 30.02 in 10.0 mi West 9.2 mph 19.6 mph N/A   Overcast
11:15 PM 14.9 °F 3.1 °F 2.3 °F 57% 30.02 in 10.0 mi WNW 9.2 mph 24.2 mph N/A   Overcast
11:35 PM 14.7 °F 2.1 °F 5.5 °F 67% 30.02 in 4.0 mi WNW 10.4 mph 17.3 mph N/A Snow Light Snow
11:55 PM 14.0 °F 0.5 °F 3.6 °F 63% 30.02 in 7.0 mi WNW 11.5 mph 21.9 mph N/A   Overcast